EW8016 Weather Reports


Display with metric or nautical units.
time (UTC)temp
F
wind
direction
speed
MPH
gust
MPH
rain 1hr
in
rain 24hr
in
rain mn
in
humidity
%
barometer
mb
20260509233003 49 0 0.0 0.0 0.00 0.00 0.00 88 1016.0
20260509232503 49 0 0.0 0.0 0.00 0.00 0.00 87 1016.0
20260509232219 49 0 0.0 0.0 0.00 0.00 0.00 88 1016.0
20260509231504 50 0 0.0 0.0 0.00 0.00 0.00 87 1016.0
20260509231003 50 0 0.0 0.0 0.00 0.00 0.00 87 1016.0
20260509230505 50 0 0.0 0.0 0.00 0.00 0.00 87 1016.1
20260509230005 50 0 0.0 0.0 0.00 0.00 0.00 86 1016.1
20260509225506 50 0 0.0 0.0 0.00 0.00 0.00 86 1016.1
20260509225219 50 0 0.0 0.0 0.00 0.00 0.00 86 1016.2
20260509224505 50 0 0.0 0.0 0.00 0.00 0.00 86 1016.3
20260509224003 51 0 0.0 0.0 0.00 0.00 0.00 86 1016.2
20260509223504 51 0 0.0 0.0 0.00 0.00 0.00 86 1016.3
20260509223011 51 0 0.0 0.0 0.00 0.00 0.00 85 1016.4
20260509222508 51 0 0.0 0.0 0.00 0.00 0.00 85 1016.4
20260509222003 51 0 0.0 0.0 0.00 0.00 0.00 85 1016.4
20260509221503 51 0 0.0 0.0 0.00 0.00 0.00 85 1016.4
20260509221005 51 22 0.0 1.0 0.00 0.00 0.00 85 1016.3
20260509220503 51 22 0.0 3.0 0.00 0.00 0.00 85 1016.4
20260509220008 51 22 0.0 3.0 0.00 0.00 0.00 84 1016.4
20260509215503 52 22 0.0 3.0 0.00 0.00 0.00 84 1016.4
20260509215004 52 4 1.0 3.0 0.00 0.00 0.00 84 1016.4
20260509214504 52 356 1.0 3.0 0.00 0.00 0.00 85 1016.4
20260509214003 52 355 0.0 3.0 0.00 0.00 0.00 85 1016.6
20260509213720 52 0 0.0 0.0 0.00 0.00 0.00 85 1016.5
20260509213008 52 354 0.0 3.0 0.00 0.00 0.00 84 1016.5
20260509212504 52 346 0.0 3.0 0.00 0.00 0.00 84 1016.5
20260509212216 52 314 0.0 1.0 0.00 0.00 0.00 84 1016.5
20260509211508 52 0 0.0 0.0 0.00 0.00 0.00 84 1016.5
20260509211223 52 0 0.0 0.0 0.00 0.00 0.00 84 1016.6
20260509210503 52 0 0.0 0.0 0.00 0.00 0.00 83 1016.7
20260509210004 53 0 0.0 0.0 0.00 0.00 0.00 82 1016.7
20260509205505 53 0 0.0 0.0 0.00 0.00 0.00 82 1016.6
20260509205005 53 0 0.0 0.0 0.00 0.00 0.00 81 1016.8
20260509204717 53 0 0.0 0.0 0.00 0.00 0.00 81 1016.8
20260509204005 54 0 0.0 0.0 0.00 0.00 0.00 80 1016.8
20260509203503 54 0 0.0 0.0 0.00 0.00 0.00 79 1016.9
20260509203005 54 0 0.0 0.0 0.00 0.00 0.00 78 1017.0
20260509202506 55 0 0.0 0.0 0.00 0.00 0.00 78 1017.0
20260509202218 55 0 0.0 0.0 0.00 0.00 0.00 78 1017.0
20260509201503 55 0 0.0 0.0 0.00 0.00 0.00 77 1017.0
20260509201008 55 0 0.0 0.0 0.00 0.00 0.00 76 1016.9
20260509200505 56 0 0.0 0.0 0.00 0.00 0.00 76 1017.0
20260509200004 56 0 0.0 0.0 0.00 0.00 0.00 76 1016.9
20260509195504 56 0 0.0 0.0 0.00 0.00 0.00 76 1016.9
20260509195218 56 0 0.0 0.0 0.00 0.00 0.00 75 1017.0
20260509194505 57 0 0.0 0.0 0.00 0.00 0.00 73 1016.9
20260509194218 57 0 0.0 0.0 0.00 0.00 0.00 73 1016.9
20260509193503 57 0 0.0 0.0 0.00 0.00 0.00 72 1016.8
20260509193003 58 0 0.0 0.0 0.00 0.00 0.00 71 1016.8
20260509192721 58 0 0.0 0.0 0.00 0.00 0.00 71 1016.8
20260509192003 58 0 0.0 0.0 0.00 0.00 0.00 70 1016.7
20260509191504 59 0 0.0 0.0 0.00 0.00 0.00 69 1016.6
20260509191005 59 0 0.0 0.0 0.00 0.00 0.00 69 1016.7
20260509190506 59 0 0.0 0.0 0.00 0.00 0.00 68 1016.6
20260509190220 60 0 0.0 0.0 0.00 0.00 0.00 68 1016.5
20260509185504 60 0 0.0 0.0 0.00 0.00 0.00 66 1016.5
20260509185004 60 0 0.0 0.0 0.00 0.00 0.00 66 1016.5
20260509184505 61 314 0.0 1.0 0.00 0.00 0.00 64 1016.5
20260509184003 61 314 0.0 1.0 0.00 0.00 0.00 63 1016.6
20260509183503 61 314 0.0 2.0 0.00 0.00 0.00 62 1016.6
20260509183003 62 314 0.0 2.0 0.00 0.00 0.00 62 1016.6
20260509182512 62 314 1.0 2.0 0.00 0.00 0.00 61 1016.6
20260509182005 62 314 1.0 2.0 0.00 0.00 0.00 60 1016.6
20260509181503 62 314 1.0 2.0 0.00 0.00 0.00 59 1016.6
20260509181003 62 314 1.0 2.0 0.00 0.00 0.00 58 1016.7
20260509180504 63 319 1.0 3.0 0.00 0.00 0.00 57 1016.7
20260509180006 63 322 1.0 3.0 0.00 0.00 0.00 56 1016.6
20260509175504 63 307 2.0 4.0 0.00 0.00 0.00 56 1016.6
20260509175217 63 298 2.0 4.0 0.00 0.00 0.00 55 1016.5
20260509174503 63 284 2.0 4.0 0.00 0.00 0.00 54 1016.5
20260509174007 64 285 3.0 4.0 0.00 0.00 0.00 54 1016.5
20260509173503 64 285 3.0 4.0 0.00 0.00 0.00 53 1016.6
20260509173005 64 287 2.0 4.0 0.00 0.00 0.00 53 1016.6
20260509172504 64 284 2.0 4.0 0.00 0.00 0.00 52 1016.5
20260509172003 65 266 2.0 4.0 0.00 0.00 0.00 51 1016.6
20260509171503 65 256 2.0 4.0 0.00 0.00 0.00 51 1016.5
20260509171008 66 247 2.0 4.0 0.00 0.00 0.00 50 1016.5
20260509170505 66 229 2.0 4.0 0.00 0.00 0.00 51 1016.5
20260509170219 66 207 2.0 6.0 0.00 0.00 0.00 51 1016.6
20260509165503 66 170 2.0 6.0 0.00 0.00 0.00 50 1016.5
20260509165005 67 217 2.0 6.0 0.00 0.00 0.00 49 1016.5
20260509164505 67 250 2.0 5.0 0.00 0.00 0.00 48 1016.4
20260509164217 67 225 2.0 5.0 0.00 0.00 0.00 48 1016.4
20260509163505 67 236 2.0 5.0 0.00 0.00 0.00 47 1016.4
20260509163003 67 245 1.0 3.0 0.00 0.00 0.00 48 1016.3
20260509162720 67 239 1.0 3.0 0.00 0.00 0.00 48 1016.4
20260509162006 66 249 2.0 4.0 0.00 0.00 0.00 51 1016.4
20260509161505 65 239 2.0 4.0 0.00 0.00 0.00 52 1016.4
20260509161218 65 235 2.0 4.0 0.00 0.00 0.00 51 1016.4
20260509160718 66 233 2.0 4.0 0.00 0.00 0.00 51 1016.6
20260509160003 66 251 2.0 4.0 0.00 0.00 0.00 51 1016.5
20260509155503 66 276 2.0 4.0 0.00 0.00 0.00 49 1016.5
20260509155216 67 279 2.0 4.0 0.00 0.00 0.00 49 1016.5
20260509154505 68 200 3.0 8.0 0.00 0.00 0.00 47 1016.7
20260509154005 69 211 3.0 8.0 0.00 0.00 0.00 46 1016.7
20260509153503 69 242 3.0 7.0 0.00 0.00 0.00 47 1016.7
20260509153005 69 244 2.0 6.0 0.00 0.00 0.00 46 1016.8
20260509152505 69 291 2.0 7.0 0.00 0.00 0.00 46 1016.9
20260509152003 69 290 2.0 7.0 0.00 0.00 0.00 47 1016.9
20260509151504 69 299 3.0 8.0 0.00 0.00 0.00 45 1016.8
20260509151222 69 298 3.0 8.0 0.00 0.00 0.00 46 1016.8
20260509150503 69 334 2.0 8.0 0.00 0.00 0.00 45 1016.9
20260509150005 70 341 2.0 8.0 0.00 0.00 0.00 45 1016.9
20260509145507 69 323 3.0 8.0 0.00 0.00 0.00 47 1016.9
20260509145003 69 318 4.0 9.0 0.00 0.00 0.00 46 1017.0
20260509144719 68 321 4.0 9.0 0.00 0.00 0.00 48 1017.0
20260509144003 68 341 3.0 8.0 0.00 0.00 0.00 48 1016.9
20260509143719 68 355 2.0 8.0 0.00 0.00 0.00 48 1017.0
20260509143009 67 294 3.0 9.0 0.00 0.00 0.00 50 1017.0
20260509142505 67 292 3.0 9.0 0.00 0.00 0.00 50 1017.2
20260509142005 66 307 2.0 8.0 0.00 0.00 0.00 50 1017.2
20260509141505 66 152 2.0 5.0 0.00 0.00 0.00 51 1017.2
20260509141004 66 183 1.0 5.0 0.00 0.00 0.00 51 1017.2
20260509140503 66 329 2.0 8.0 0.00 0.00 0.00 51 1017.3
20260509140007 67 316 3.0 8.0 0.00 0.00 0.00 50 1017.3
20260509135504 67 305 3.0 7.0 0.00 0.00 0.00 50 1017.3
20260509135003 68 345 3.0 7.0 0.00 0.00 0.00 51 1017.4
20260509134508 67 52 2.0 5.0 0.00 0.00 0.00 51 1017.6
20260509134222 67 62 2.0 6.0 0.00 0.00 0.00 52 1017.5
20260509133505 67 50 2.0 6.0 0.00 0.00 0.00 52 1017.5
20260509133004 67 41 2.0 8.0 0.00 0.00 0.00 53 1017.6
20260509132505 68 25 3.0 8.0 0.00 0.00 0.00 50 1017.7
20260509132220 68 352 2.0 6.0 0.00 0.00 0.00 52 1017.8
20260509131505 68 305 3.0 7.0 0.00 0.00 0.00 52 1017.8
20260509131008 68 299 3.0 8.0 0.00 0.00 0.00 54 1017.8
20260509130505 67 300 4.0 10.0 0.00 0.00 0.00 54 1017.9
20260509130003 67 309 3.0 10.0 0.00 0.00 0.00 55 1018.0
20260509125503 66 311 3.0 9.0 0.00 0.00 0.00 56 1018.1
20260509125003 66 338 3.0 7.0 0.00 0.00 0.00 56 1018.1
20260509124718 66 7 3.0 7.0 0.00 0.00 0.00 56 1018.1
20260509124003 66 76 2.0 7.0 0.00 0.00 0.00 54 1018.2
20260509123505 66 76 2.0 7.0 0.00 0.00 0.00 57 1018.3
20260509123219 65 83 2.0 8.0 0.00 0.00 0.00 57 1018.4
20260509122718 65 113 2.0 8.0 0.00 0.00 0.00 57 1018.5
20260509122008 64 130 2.0 8.0 0.00 0.00 0.00 56 1018.5
20260509121503 65 119 2.0 6.0 0.00 0.00 0.00 57 1018.5
20260509121006 65 90 1.0 6.0 0.00 0.00 0.00 57 1018.5
20260509120510 66 45 2.0 7.0 0.00 0.00 0.00 57 1018.7
20260509120003 66 68 3.0 9.0 0.00 0.00 0.00 57 1018.7
20260509115505 65 78 3.0 9.0 0.00 0.00 0.00 56 1018.7
20260509115005 66 61 2.0 9.0 0.00 0.00 0.00 58 1018.7
20260509114503 66 61 2.0 5.0 0.00 0.00 0.00 58 1018.7
20260509114004 66 55 2.0 6.0 0.00 0.00 0.00 58 1018.7
20260509113503 66 22 1.0 6.0 0.00 0.00 0.00 59 1018.8
20260509113005 65 50 1.0 4.0 0.00 0.00 0.00 61 1018.8
20260509112504 65 17 2.0 8.0 0.00 0.00 0.00 61 1019.0
20260509112006 64 342 2.0 8.0 0.00 0.00 0.00 62 1019.0
20260509111506 64 15 2.0 8.0 0.00 0.00 0.00 62 1019.1
20260509111005 63 67 2.0 5.0 0.00 0.00 0.00 62 1019.1
20260509110503 63 53 2.0 5.0 0.00 0.00 0.00 63 1019.2
20260509110003 62 336 2.0 5.0 0.00 0.00 0.00 65 1019.2
20260509105503 62 333 2.0 5.0 0.00 0.00 0.00 67 1019.3
20260509105005 60 351 2.0 5.0 0.00 0.00 0.00 69 1019.4
20260509104718 60 351 2.0 5.0 0.00 0.00 0.00 67 1019.4
20260509104003 60 4 1.0 4.0 0.00 0.00 0.00 67 1019.5
20260509103511 60 20 1.0 4.0 0.00 0.00 0.00 68 1019.5
20260509103003 60 29 2.0 4.0 0.00 0.00 0.00 68 1019.4
20260509102717 61 28 2.0 4.0 0.00 0.00 0.00 67 1019.5
20260509102005 61 80 1.0 4.0 0.00 0.00 0.00 68 1019.5
20260509101505 61 66 1.0 4.0 0.00 0.00 0.00 69 1019.5
20260509101004 61 54 1.0 3.0 0.00 0.00 0.00 68 1019.5
20260509100503 61 48 2.0 6.0 0.00 0.00 0.00 68 1019.5
20260509100008 62 50 2.0 6.0 0.00 0.00 0.00 68 1019.4
20260509095503 62 39 2.0 6.0 0.00 0.00 0.00 68 1019.5
20260509095218 62 40 2.0 6.0 0.00 0.00 0.00 68 1019.5
20260509094505 61 82 3.0 9.0 0.00 0.00 0.00 71 1019.5
20260509094005 60 68 3.0 9.0 0.00 0.00 0.00 70 1019.4
20260509093717 60 49 3.0 9.0 0.00 0.00 0.00 71 1019.4
20260509093005 59 32 3.0 7.0 0.00 0.00 0.00 73 1019.5
20260509092505 59 41 3.0 8.0 0.00 0.00 0.00 72 1019.4
20260509092003 60 43 3.0 8.0 0.00 0.00 0.00 72 1019.4
20260509091505 60 30 3.0 9.0 0.00 0.00 0.00 72 1019.4
20260509091003 60 38 2.0 9.0 0.00 0.00 0.00 72 1019.3
20260509090505 60 74 2.0 8.0 0.00 0.00 0.00 72 1019.3
20260509090009 60 63 3.0 9.0 0.00 0.00 0.00 72 1019.3
20260509085503 59 17 3.0 9.0 0.00 0.00 0.00 72 1019.5
20260509085004 60 11 3.0 8.0 0.00 0.00 0.00 72 1019.3
20260509084503 60 29 2.0 8.0 0.00 0.00 0.00 72 1019.5
20260509084008 60 32 3.0 7.0 0.00 0.00 0.00 72 1019.4
20260509083507 60 45 3.0 7.0 0.00 0.00 0.00 73 1019.6
20260509083005 60 82 2.0 7.0 0.00 0.00 0.00 73 1019.5
20260509082504 59 59 2.0 6.0 0.00 0.00 0.00 74 1019.6
20260509082003 59 36 2.0 6.0 0.00 0.00 0.00 74 1019.7
20260509081506 58 42 2.0 5.0 0.00 0.00 0.00 77 1019.6
20260509081220 58 33 2.0 7.0 0.00 0.00 0.00 76 1019.7
20260509080505 58 7 2.0 7.0 0.00 0.00 0.00 76 1019.7
20260509080003 58 20 1.0 5.0 0.00 0.00 0.00 77 1019.7
20260509075504 58 49 2.0 6.0 0.00 0.00 0.00 76 1019.7
20260509075005 58 44 3.0 7.0 0.00 0.00 0.00 77 1019.7
20260509074503 57 48 2.0 7.0 0.00 0.00 0.00 77 1019.8
20260509074005 57 52 2.0 6.0 0.00 0.00 0.00 78 1019.6
20260509073503 56 39 3.0 6.0 0.00 0.00 0.00 79 1019.6
20260509073008 56 29 2.0 5.0 0.00 0.00 0.00 79 1019.6
20260509072505 56 23 2.0 5.0 0.00 0.00 0.00 80 1019.7
20260509072003 56 29 2.0 5.0 0.00 0.00 0.00 80 1019.7
20260509071503 56 44 2.0 4.0 0.00 0.00 0.00 81 1019.8
20260509071219 56 50 2.0 8.0 0.00 0.00 0.00 82 1019.7
20260509070503 55 44 2.0 8.0 0.00 0.00 0.00 81 1019.9
20260509070005 55 29 1.0 4.0 0.00 0.00 0.00 83 1019.8
20260509065720 54 32 1.0 4.0 0.00 0.00 0.00 84 1019.8
20260509065003 54 34 2.0 3.0 0.00 0.00 0.00 86 1019.8
20260509064509 53 53 2.0 6.0 0.00 0.00 0.00 86 1019.9
20260509064225 53 56 2.0 6.0 0.00 0.00 0.00 86 1019.9
20260509063718 52 67 1.0 6.0 0.00 0.00 0.00 87 1019.8
20260509063003 52 59 1.0 5.0 0.00 0.00 0.00 90 1019.9
20260509062506 51 59 2.0 5.0 0.00 0.00 0.00 90 1019.8
20260509062221 51 60 1.0 5.0 0.00 0.00 0.00 90 1019.8
20260509061504 50 76 1.0 5.0 0.00 0.00 0.00 91 1019.7
20260509061005 49 70 2.0 5.0 0.00 0.00 0.00 91 1019.7
20260509060503 49 63 2.0 5.0 0.00 0.00 0.00 92 1019.7
20260509060217 49 61 2.0 5.0 0.00 0.00 0.00 92 1019.8
20260509055505 48 57 1.0 4.0 0.00 0.00 0.00 93 1019.7
20260509055003 48 68 0.0 4.0 0.00 0.00 0.00 94 1019.7
20260509054505 48 47 1.0 4.0 0.00 0.00 0.00 94 1019.7
20260509054007 47 48 1.0 4.0 0.00 0.00 0.00 94 1019.6
20260509053506 47 71 0.0 3.0 0.00 0.00 0.00 95 1019.6
20260509053216 47 71 0.0 3.0 0.00 0.00 0.00 95 1019.7
20260509052503 46 0 0.0 0.0 0.00 0.00 0.00 94 1019.6
20260509052003 46 0 0.0 0.0 0.00 0.00 0.00 95 1019.7
20260509051503 46 0 0.0 0.0 0.00 0.00 0.00 94 1019.6
20260509051003 45 0 0.0 0.0 0.00 0.00 0.00 95 1019.5
20260509050504 45 48 0.0 2.0 0.00 0.00 0.00 95 1019.6
20260509050005 45 48 0.0 2.0 0.00 0.00 0.00 95 1019.4
20260509045505 45 47 1.0 2.0 0.00 0.00 0.00 95 1019.4
20260509045003 45 46 0.0 2.0 0.00 0.00 0.00 95 1019.4
20260509044504 44 0 0.0 0.0 0.00 0.00 0.00 95 1019.4
20260509044003 44 0 0.0 0.0 0.00 0.00 0.00 94 1019.5
20260509043503 44 0 0.0 0.0 0.00 0.00 0.00 94 1019.3
20260509043218 44 0 0.0 0.0 0.00 0.00 0.00 94 1019.4
20260509042503 44 0 0.0 0.0 0.00 0.00 0.00 94 1019.4
20260509042003 44 0 0.0 0.0 0.00 0.00 0.00 94 1019.5
20260509041504 44 0 0.0 0.0 0.00 0.00 0.00 94 1019.4
20260509041010 44 0 0.0 0.0 0.00 0.00 0.00 94 1019.4
20260509040503 44 0 0.0 0.0 0.00 0.00 0.00 94 1019.4
20260509040005 44 0 0.0 0.0 0.00 0.00 0.00 94 1019.3
20260509035717 44 0 0.0 0.0 0.00 0.00 0.00 94 1019.4
20260509035010 44 0 0.0 0.0 0.00 0.00 0.00 94 1019.4
20260509034503 44 0 0.0 0.0 0.00 0.00 0.00 93 1019.5
20260509034007 44 0 0.0 0.0 0.00 0.00 0.00 93 1019.4
20260509033503 44 0 0.0 0.0 0.00 0.00 0.00 93 1019.4
20260509033003 44 0 0.0 0.0 0.00 0.00 0.00 93 1019.5
20260509032503 44 0 0.0 0.0 0.00 0.00 0.00 93 1019.5
20260509032220 44 0 0.0 0.0 0.00 0.00 0.00 93 1019.5
20260509031504 44 0 0.0 0.0 0.00 0.00 0.00 93 1019.5
20260509031008 44 0 0.0 0.0 0.00 0.00 0.00 92 1019.6
20260509030718 44 0 0.0 0.0 0.00 0.00 0.00 92 1019.7
20260509030003 45 0 0.0 0.0 0.00 0.00 0.00 92 1019.7
20260509025718 45 0 0.0 0.0 0.00 0.00 0.00 92 1019.7
20260509025006 45 0 0.0 0.0 0.00 0.00 0.00 92 1019.7
20260509024503 45 0 0.0 0.0 0.00 0.00 0.00 92 1019.7
20260509024218 45 0 0.0 0.0 0.00 0.00 0.00 92 1019.7
20260509023508 45 0 0.0 0.0 0.00 0.00 0.00 92 1019.8
20260509023009 45 0 0.0 0.0 0.00 0.00 0.00 92 1019.8
20260509022503 45 47 0.0 3.0 0.00 0.00 0.00 92 1019.7
20260509022004 45 54 1.0 3.0 0.00 0.00 0.00 92 1019.7
20260509021504 46 59 1.0 3.0 0.00 0.00 0.00 92 1019.7
20260509021003 45 62 1.0 3.0 0.00 0.00 0.00 92 1019.6
20260509020503 45 64 0.0 3.0 0.00 0.00 0.00 92 1019.6
20260509020005 45 49 0.0 3.0 0.00 0.00 0.00 92 1019.5
20260509015718 45 45 0.0 3.0 0.00 0.00 0.00 92 1019.5
20260509015005 45 42 1.0 3.0 0.00 0.00 0.00 92 1019.6
20260509014504 46 42 1.0 3.0 0.00 0.00 0.00 92 1019.5
20260509014003 46 42 1.0 3.0 0.00 0.00 0.00 92 1019.6
20260509013504 46 41 1.0 3.0 0.00 0.00 0.00 92 1019.6
20260509013004 46 37 0.0 2.0 0.00 0.00 0.00 92 1019.6
20260509012511 46 0 0.0 0.0 0.00 0.00 0.00 92 1019.7
20260509012003 46 0 0.0 0.0 0.00 0.00 0.00 91 1019.7
20260509011509 46 0 0.0 0.0 0.00 0.00 0.00 91 1019.7
20260509011004 46 0 0.0 0.0 0.00 0.00 0.00 91 1019.8
20260509010720 46 0 0.0 0.0 0.00 0.00 0.00 91 1019.8
20260509010003 46 81 0.0 2.0 0.00 0.00 0.00 90 1019.7
20260509005504 46 0 0.0 0.0 0.00 0.00 0.00 90 1019.9
20260509005005 46 0 0.0 0.0 0.00 0.00 0.00 90 1019.9
20260509004504 46 0 0.0 0.0 0.00 0.00 0.00 90 1019.8
20260509004003 46 0 0.0 0.0 0.00 0.00 0.00 90 1019.9
20260509003718 46 0 0.0 0.0 0.00 0.00 0.00 90 1019.8
20260509003010 46 82 0.0 4.0 0.00 0.00 0.00 90 1019.9
20260509002508 46 82 0.0 4.0 0.00 0.00 0.00 90 1019.8
20260509002006 46 86 0.0 2.0 0.00 0.00 0.00 90 1019.8
20260509001719 46 82 0.0 2.0 0.00 0.00 0.00 90 1019.8
20260509001005 47 75 0.0 2.0 0.00 0.00 0.00 89 1019.8
20260509000504 47 0 0.0 0.0 0.00 0.00 0.00 89 1019.8
20260509000005 47 0 0.0 0.0 0.00 0.00 0.00 88 1019.8
20260508235504 47 0 0.0 0.0 0.00 0.00 0.00 88 1019.8
20260508235006 47 0 0.0 0.0 0.00 0.00 0.00 88 1019.9
20260508234717 47 0 0.0 0.0 0.00 0.00 0.00 87 1019.8
20260508234008 48 0 0.0 0.0 0.00 0.00 0.00 86 1019.9
20260508233508 48 0 0.0 0.0 0.00 0.00 0.00 86 1019.8